KC4QLP Weather Reports


time (UTC)temp
C
wind
direction
speed
KPH
gust
KPH
rain 1hr
cm
rain 24hr
cm
rain mn
cm
humidity
%
barometer
mb
20260504050014 11 90 1.6 1.6 0.00 0.00 0.00 45 1006.5
20260504043013 11 90 1.6 1.6 0.00 0.00 0.00 45 1006.9
20260504040013 11 90 1.6 1.6 0.00 0.00 0.00 45 1006.7
20260504033013 11 90 1.6 1.6 0.00 0.00 0.00 45 1007.1
20260504030013 11 90 1.6 1.6 0.00 0.00 0.00 45 1007.5
20260504023013 11 90 1.6 1.6 0.00 0.00 0.00 45 1006.9
20260504020013 11 90 1.6 1.6 0.00 0.00 0.00 45 1007.0
20260504013013 11 90 1.6 1.6 0.00 0.00 0.00 45 1007.0
20260504010013 11 90 1.6 1.6 0.00 0.00 0.00 45 1006.9
20260504003014 11 90 1.6 1.6 0.00 0.00 0.00 45 1006.6
20260504000013 11 90 1.6 1.6 0.00 0.00 0.00 45 1006.2
20260503233013 11 90 1.6 9.7 0.00 0.00 0.00 45 1006.2
20260503230014 11 319 0.0 12.9 0.00 0.00 0.00 44 1006.0
20260503223014 12 225 1.6 17.7 0.00 0.00 0.00 41 1005.7
20260503220013 12 176 1.6 24.1 0.00 0.00 0.00 38 1005.7
20260503213013 13 278 1.6 27.4 0.00 0.00 0.00 35 1005.7
20260503210014 13 224 4.8 24.1 0.00 0.00 0.00 34 1005.4
20260503203014 13 215 12.9 29.0 0.00 0.00 0.00 33 1005.6
20260503200014 13 283 3.2 20.9 0.00 0.00 0.00 33 1005.8
20260503193014 13 218 3.2 25.7 0.00 0.00 0.00 34 1006.3
20260503190014 12 158 9.7 25.7 0.00 0.00 0.00 34 1006.7
20260503183014 11 236 3.2 29.0 0.00 0.00 0.00 39 1007.0
20260503180014 11 228 9.7 17.7 0.00 0.00 0.00 42 1007.2
20260503173014 10 208 3.2 20.9 0.00 0.00 0.00 44 1007.4